Location: Melizzano
(41.1500°N, 14.5000°E)
Time: 08:22:05
(UTC+00:00)

NOSS 3-4 (C) - Pass Details

Date: 11 May 2021
Orbit: 873 x 1339 km, 63.4° (Epoch: 06 May)

Event Time Altitude Azimuth Distance (km) Brightness Sun altitude
Rises 21:12:43 0° 324° (NW) 3,857 7.9 -25.9°
Reaches altitude 10° 21:15:15 10° 323° (NW) 2,963 7.0 -26.1°
Maximum altitude 21:22:24 82° 237° (WSW) 1,209 3.8 -26.7°
Enters shadow 21:24:13 57° 160° (SSE) 1,414 3.9 -26.8°
